Hourly Data Report for June 27, 2021

DRYDEN REGIONAL
ONTARIO
Current Station Operator: NAVCAN

49°49'39.000" N
92°44'39.000" W
412.70 m
6032125
71527
YHD

Download Data

Hourly Data (June 2021)
Hourly Data Report for June 27, 2021
TIME
LST
Temp Definition
°C
Dew Point Definition
°C
Rel Hum Definition
%
Precip. Amount Definition
mm

Wind Dir Definition
10's deg

Wind Spd Definition
km/h
Visibility Definition
km
Stn Press Definition
kPa
Hmdx Definition


Wind Chill Definition


Weather Definition


00:00 15.0 14.3 96 0.0 27 8 16.1 96.24     LegendNANA
01:00 15.2 14.1 93 0.0   0 16.1 96.23     LegendNANA
02:00 15.3 14.2 93 0.0 16 5 16.1 96.22     LegendNANA
03:00 15.3 14.7 96 0.0 23 5 16.1 96.21     LegendNANA
04:00 15.4 15.1 98 0.0 18 9 16.1 96.23     LegendNANA
05:00 15.4 14.9 97 0.0   0 16.1 96.25     LegendNANA
06:00 15.3 15.2 99 0.0   0 6.4 96.28     Fog
07:00 18.1 16.0 88 0.0 16 4 16.1 96.29     LegendNANA
08:00 20.2 16.8 81 0.0 LegendMM 4 16.1 96.32 25   LegendNANA
09:00 22.6 16.7 69 0.0 15 8 16.1 96.35 28   LegendNANA
10:00 23.3 14.7 58 0.0 20 8 16.1 96.38 27   LegendNANA
11:00 25.1 13.9 49 0.0 LegendMM 5 16.1 96.38 28   LegendNANA
12:00 25.4 13.2 46 0.0 17 11 16.1 96.33 28   LegendNANA
13:00 26.5 11.0 37 0.0 22 9 16.1 96.34 28   LegendNANA
14:00 23.1 14.0 56 0.0 4 8 16.1 96.36 26   LegendNANA
15:00 19.7 15.0 74 0.0 4 11 11.3 96.45     Thunderstorms, Rain
16:00 22.0 16.0 68 0.5 10 8 16.1 96.42 27   LegendNANA
17:00 23.5 15.3 59 0.0 23 21 9.7 96.47 28   Haze
18:00 23.6 13.2 51 0.0 LegendMM 4 16.1 96.45 27   LegendNANA
19:00 22.9 14.4 58 0.0 LegendMM 4 16.1 96.46 27   LegendNANA
20:00 20.9 16.0 73 0.0 25 5 16.1 96.52 26   LegendNANA
21:00 19.1 16.2 83 0.0 7 5 16.1 96.54     LegendNANA
22:00 18.0 15.8 87 0.0 LegendMM 4 16.1 96.57     LegendNANA
23:00 19.0 14.5 75 0.0 16 8 16.1 96.59     LegendNANA

Notes on Data Quality.

Legend

  • E = Estimated
  • M = Missing
  • NA = Not Available*
  • [empty] = Indicates an unobserved value
Date modified: